Showing default

COSMOS 90, 1588

Orbit data source: Space-Track

COSMOS 90, 1588 is a payload satellite owned by OKB-10 (CIS) in LEO that was launched on Sat, 18 Sep 1965 UTC via a KOSMOS 65S3 launch vehicle from the Tyuratam Missile And Space Complex (TTMTR). Payloads include a variety of satellites, spacecraft, and rockets equipped with specific instruments for various scientific and technological missions. These include communications satellites like Starlink; space stations such as the ISS; scientific satellites like the Hubble; Earth observation satellites from companies like Planet Labs, Umbra, and HawkEye 360; GPS; miniature CubeSats for education and research; and military/defense satellites.

Loading next visibility...
COSMOS 90 details
Identifier
1588, 1965-073E
Orbit
LEO
Last TLE update10 hours ago
Origin
Flag of CISOKB-10 (CIS)
ManufacturerOKB-10
MissionDefense Communications
Bus & MotorSTRELA-1 11F610, Unknown motor
Mass50 kg wet, 50 kg dry
Launch date (UTC)
1965-09-18 (59 years ago)
Launch vehicle
KOSMOS 65S3
Launch site
Tyuratam Missile And Space Complex (TTMTR)
Object type
Payload
Rocket body
Debris
Shape & HBRPoly, 0.8 m
Radar Cross Section0.731 m², Medium (>0.1 m² and < 1m²)

Expand to show TLE details & history

TLE from 10 hours ago
0 COSMOS 90
1 01588U 65073E   25024.61038302 -.00000101  00000-0 -67341-4 0  9998
2 01588  56.0543 165.9888 0157804 131.8470 332.2187 12.34586383676188
Epoch: 2025-01-24T14:38Z
Definitive object data (Epoch: 2025-01-24T14:38:57.092Z)
Latitude53.99496°
Longitude-65.10061°
Altitude1,426.821 km
Speed7.203 km/s
True Right ascension18h 35m 14s
True Declination53° 50' 43"
Sunlit
Object was in daylight at TLE epoch
Visualization TLE readout
Latitude34.11265°
Longitude-25.98311°
Altitude1,408.036 km
Speed7.216 km/s
Apparent Right ascension18h 15m 36s
Apparent Declination2° 23' 12"
Sunlit
Object is in daylight
Visualization observer readout
Local Sidereal Time01:50:36
Azimuth287.603° WNW
Elevation-16.375°
Doppler factor1
Orbital elements
Apogee altitude1,654.246 km
Perigee altitude1,404.676 km
Semi-major axis7,907.598 km
Eccentricity0.0157804
Inclination56.0543°
RAAN165.9888°
Arg. of periapsis131.847°
True anomaly331.36093°
Mean anomaly332.2187°
Eccentric anomaly331.79132°
Mean motion3.08657 °/min
BSTAR-0.000067341
Orbital period116.63 mins
Loading maneuver chart data...
Loading historical data...
Loading historical data...
Loading historical data...
Loading historical data...
Loading historical data...
Loading historical data...
Loading historical data...

COSMOS 90 Visibility forecast

Observer location: undefined°, undefined

Span
Click to sort rows by Start time (UTC) header in descending order
Start Az.
Max El. time (UTC)
Max El. Az.
Max El.
End time (UTC)
End Az.
12 mins2025-01-25 09:37:46.639Z157.474° SSE2025-01-25 09:43:46.639Z114.43° SE20.472°2025-01-25 09:49:46.639Z71.503° E
16 mins2025-01-25 11:36:46.639Z219.492° SW2025-01-25 11:44:46.639Z98.585° ESE44.838°2025-01-25 11:52:46.639Z46.532° ENE
14 mins2025-01-25 13:40:46.639Z275.818° WNW2025-01-25 13:47:46.639Z341.485° N31.496°2025-01-25 13:54:46.639Z39.988° NE
13 mins2025-01-25 15:45:46.639Z313.431° NW2025-01-25 15:51:46.639Z3.255° NNE24.836°2025-01-25 15:58:46.639Z59.471° ENE
15 mins2025-01-25 17:48:46.639Z321.737° NNW2025-01-25 17:55:46.639Z28.566° NE36.235°2025-01-25 18:03:46.639Z103.319° ESE
15 mins2025-01-25 19:50:46.639Z306.761° NW2025-01-25 19:57:46.639Z239.063° WSW40.27°2025-01-25 20:05:46.639Z157.803° S
|